Lapse_Rate
2.7 3.2 2.4 3.7 6.4 6.5 6.5 6.5 6.5 6.5 6.5 6.6 6.5 6.1 6.5 5.9 6.5 6.5 5.0 4.4 4.1 3.5 4.1 4.1 4.0 3.8 3.9 4.1 4.2 4.3 4.4 4.6 4.6 4.4 4.3 4.3 4.3 4.4 4.4 4.5 4.6 4.8 5.0 5.0 4.8 4.4 4.2 3.8 3.7
2.3 4.9 3.2 4.0 6.5 6.5 6.5 6.5 6.5 6.5 6.5 7.0 7.0 7.0 6.7 6.5 6.3 5.6 5.2 5.2 4.1 3.7 3.8 3.7 3.8 3.8 3.9 3.6 3.7 3.8 4.1 4.2 4.1 4.2 4.1 4.2 4.2 4.2 4.3 4.2 4.4 4.7 4.8 4.7 4.7 4.4 4.0 3.5 3.5
3.7 4.3 4.3 6.5 6.5 6.5 6.5 6.5 6.5 6.3 7.0 6.4 6.1 6.5 6.7 6.4 6.1 6.3 4.9 4.9 3.8 3.1 3.5 3.4 3.6 3.2 2.9 3.0 3.2 3.5 3.8 3.9 4.2 4.3 4.3 4.3 4.3 4.2 4.0 4.0 4.3 4.6 4.5 4.4 4.3 4.0 3.4 3.2 3.0
4.3 3.7 3.9 6.5 6.5 6.5 6.5 6.5 6.5 6.5 6.5 6.6 6.4 6.5 6.6 7.1 6.0 5.0 4.8 3.5 2.5 2.6 2.9 3.0 2.7 2.7 2.8 3.0 3.2 3.5 3.8 4.0 4.1 4.3 4.5 4.5 4.4 4.1 4.0 4.0 4.1 4.2 4.2 4.2 4.0 3.7 3.4 3.2 3.2
2.6 3.6 6.5 6.5 6.5 6.5 6.5 6.2 6.2 6.5 6.4 6.6 6.3 6.5 6.1 5.1 5.0 4.3 3.3 2.8 1.8 1.0 1.8 2.6 2.8 3.0 3.2 3.5 3.7 3.6 3.7 3.8 4.0 4.2 4.5 4.4 4.4 4.2 4.0 4.1 4.2 4.1 4.1 4.0 4.0 3.9 3.7 3.5 3.4
4.4 4.3 6.5 6.5 6.5 6.5 6.3 6.1 6.6 6.6 6.7 6.8 6.7 6.4 6.1 5.2 4.4 3.9 3.0 1.7 1.5 0.9 2.0 2.9 3.3 3.3 3.2 3.0 3.1 3.3 3.7 4.0 4.1 4.0 4.1 4.0 4.1 4.2 4.3 4.3 4.3 4.5 4.7 4.4 4.6 4.7 4.5 4.2 4.0
5.8 6.5 6.5 6.5 6.5 6.5 6.5 5.7 6.2 6.4 6.3 6.2 6.3 6.5 6.0 5.4 4.5 3.6 2.2 0.9 1.7 1.9 2.0 2.6 3.3 3.6 3.4 3.2 3.4 3.7 3.8 3.9 3.9 4.0 4.3 4.3 4.3 4.4 4.7 4.9 5.0 5.1 4.9 4.9 5.3 5.3 5.0 4.8 4.6
3.8 6.2 6.5 6.5 6.5 6.5 6.2 5.6 5.0 6.3 6.2 6.8 6.4 6.3 6.1 5.1 4.4 3.6 2.9 2.0 1.7 1.7 2.3 2.1 3.0 3.4 3.4 3.6 3.8 3.8 4.1 4.0 4.2 4.4 4.8 4.6 4.9 4.8 5.0 5.1 5.3 5.6 5.6 5.6 5.7 5.5 5.4 5.3 5.4
5.0 6.5 6.5 6.5 6.5 6.5 5.3 6.3 5.7 5.4 6.2 6.0 6.0 5.9 6.2 4.5 4.3 3.5 2.7 2.9 2.7 3.0 2.2 2.0 2.2 3.3 3.5 3.6 3.9 4.4 4.7 4.8 4.4 4.5 4.7 4.6 4.4 4.8 4.8 4.8 5.4 5.7 5.5 5.7 5.6 5.3 5.3 5.2 5.3
5.6 6.5 6.5 6.5 6.2 6.5 5.5 5.0 5.4 5.3 5.3 5.4 4.7 5.5 5.0 5.1 5.0 4.5 4.4 4.3 4.0 3.7 2.9 2.5 2.3 2.9 3.2 4.5 4.1 4.3 4.4 4.7 4.6 4.7 4.3 4.0 4.4 4.8 5.1 5.2 5.5 4.9 4.9 5.2 5.2 5.1 5.0 4.9 4.8
5.8 6.5 6.5 5.8 5.2 3.9 4.9 5.6 5.4 5.3 6.5 5.8 6.2 5.0 5.1 5.0 4.9 5.1 5.1 4.9 4.9 4.6 4.1 3.2 3.0 2.8 3.2 5.0 3.9 3.8 4.3 4.5 4.5 4.7 4.8 4.5 4.6 4.6 4.6 4.3 4.4 4.3 4.8 4.6 4.7 4.9 5.0 4.8 4.8
6.4 6.2 5.4 6.1 5.3 4.7 5.8 4.4 5.9 4.5 4.9 4.5 5.7 5.7 4.8 4.7 4.9 5.2 5.1 4.7 4.4 4.7 4.5 3.9 3.0 2.4 3.6 4.6 3.4 3.8 3.6 3.9 4.2 5.0 5.1 4.7 4.0 3.9 3.6 3.7 4.2 4.4 4.8 4.4 4.3 4.1 4.9 5.0 5.2
6.5 6.3 5.1 4.3 4.5 4.5 5.2 5.2 6.2 5.4 3.4 4.8 5.6 6.0 5.6 5.6 5.3 5.2 5.3 5.1 4.1 5.2 4.8 3.2 2.7 3.7 3.6 3.3 3.6 4.0 4.0 4.1 4.8 5.0 5.3 5.4 3.9 3.5 4.1 4.5 5.0 5.0 5.0 4.6 4.5 4.7 4.8 4.7 5.0
5.2 5.0 5.2 5.1 5.4 5.8 6.0 6.1 5.6 6.5 3.9 5.2 5.8 5.3 5.1 5.2 5.3 5.2 4.1 4.8 4.5 5.6 3.4 2.0 2.4 3.1 4.3 3.9 4.0 3.7 4.6 5.1 4.8 4.9 5.5 5.9 5.3 4.3 4.2 4.2 4.1 4.3 4.4 4.6 4.3 4.0 3.6 3.2 4.0
4.3 6.5 6.5 6.3 6.0 6.4 4.9 6.5 6.5 5.5 5.1 5.6 5.6 5.1 4.6 4.8 4.9 4.9 4.6 4.1 5.0 4.4 3.4 3.2 2.2 3.1 2.6 4.0 3.8 4.2 4.8 4.7 4.3 4.8 4.8 4.8 4.8 4.6 3.8 3.3 3.1 3.5 4.1 4.0 3.7 3.4 3.5 2.5 3.7
6.5 6.5 6.5 6.5 6.1 6.1 5.6 6.5 6.3 3.9 5.1 5.8 5.2 4.9 5.0 4.4 4.9 4.4 3.7 3.2 2.9 2.9 3.2 2.9 3.3 1.6 2.4 3.1 3.5 4.0 4.7 4.7 4.5 5.1 5.0 5.3 4.7 4.4 4.0 3.5 3.0 3.7 3.9 3.7 2.7 2.2 2.3 2.6 2.7
6.5 6.5 6.5 6.5 5.7 6.5 6.5 6.5 5.9 3.2 4.3 4.8 4.1 4.1 4.3 3.6 2.9 2.4 1.3 1.0 0.9 1.8 2.4 1.2 1.8 1.4 1.8 2.7 3.8 3.3 3.9 3.9 4.2 4.6 4.6 4.8 4.9 4.6 3.8 3.0 2.9 3.4 3.1 2.7 2.5 2.6 2.4 2.5 2.7
6.5 6.5 6.5 6.5 6.5 6.5 6.5 6.5 6.5 4.5 3.4 3.7 3.3 3.0 3.2 2.7 3.1 3.1 2.2 2.3 2.0 1.9 1.6 1.4 1.0 1.5 3.1 2.6 2.6 2.8 3.3 3.2 3.4 3.8 4.0 4.7 4.2 4.1 3.9 3.6 3.6 3.6 2.8 2.6 2.3 2.8 2.9 3.1 3.1
6.5 6.5 6.5 6.5 6.5 6.5 6.5 6.5 6.5 5.3 3.8 4.8 5.7 5.5 5.0 4.8 4.4 3.7 2.9 2.7 2.8 3.1 2.9 2.3 3.1 2.7 2.6 2.1 2.1 2.7 2.3 2.4 2.7 3.9 3.7 3.7 3.6 3.8 3.1 2.4 3.1 3.4 2.8 3.0 3.3 3.1 3.2 4.2 3.5
6.5 6.5 6.5 6.5 6.5 6.5 6.5 6.5 6.5 5.9 5.8 6.2 6.1 5.6 5.1 4.8 4.5 3.8 2.4 1.2 0.9 2.7 3.1 3.3 3.1 2.9 2.7 2.0 1.9 2.1 2.1 2.3 2.5 3.2 2.8 3.0 3.3 3.3 4.2 3.1 2.7 3.2 2.8 2.6 2.6 2.7 3.3 3.8 3.2
6.5 6.5 6.5 6.5 6.5 6.5 6.5 6.5 6.5 6.4 6.2 6.4 5.7 4.8 4.3 4.0 4.0 4.0 3.5 1.8 1.6 2.0 2.5 3.1 3.5 3.5 3.2 3.2 2.8 2.5 2.2 2.1 1.9 1.2 1.1 2.1 3.0 3.5 3.9 4.0 3.5 2.8 2.5 2.5 3.0 3.5 4.3 5.0 4.6
6.5 6.5 6.5 6.5 6.5 6.5 6.5 6.5 6.5 6.5 6.5 6.2 6.0 4.4 4.2 4.7 3.9 3.7 2.9 2.4 2.3 2.2 2.2 2.4 2.8 2.9 3.3 3.3 3.1 3.1 2.6 2.7 1.8 1.6 1.7 2.8 3.8 4.2 4.5 3.9 3.5 4.0 4.3 4.2 4.8 5.4 5.6 5.9 5.5
6.5 6.5 6.5 6.5 6.5 6.5 6.5 6.5 6.5 6.5 6.5 6.5 5.6 4.8 4.4 3.6 3.5 3.1 3.3 2.9 3.2 3.2 3.0 2.6 3.0 3.3 2.7 2.2 2.4 2.5 2.6 2.3 2.1 2.3 2.8 3.2 3.7 4.3 4.4 5.1 5.1 4.8 4.7 4.6 4.5 4.7 4.5 5.2 5.4
6.5 6.5 6.5 6.5 6.5 6.5 6.5 6.5 6.5 6.5 6.5 6.5 6.3 5.5 4.4 3.2 3.1 3.0 3.2 3.2 3.4 2.8 2.6 2.9 3.3 3.3 3.0 2.4 2.0 1.9 2.2 2.2 2.3 2.7 2.6 2.6 2.5 3.0 4.4 5.1 5.0 4.8 4.9 5.2 5.2 5.3 5.3 5.1 5.0
6.5 6.5 6.5 6.5 6.5 6.5 6.5 6.5 6.5 6.5 6.5 6.4 6.0 4.6 4.1 3.5 2.7 2.7 3.4 3.4 3.8 4.1 3.4 3.6 3.6 3.4 3.5 2.8 2.5 2.4 2.3 2.6 3.4 4.0 3.8 3.5 3.3 3.5 3.9 4.8 4.6 4.7 5.9 6.3 6.6 6.2 5.8 5.1 4.6
6.5 6.5 6.5 6.5 6.5 6.5 6.5 6.5 6.5 6.5 6.3 5.3 4.8 4.3 4.5 4.0 3.4 3.4 3.6 3.2 3.6 3.7 3.3 3.4 3.6 3.6 3.0 2.5 2.6 2.7 2.8 2.3 3.0 3.3 2.7 2.2 3.0 3.7 5.0 4.7 4.6 5.5 6.5 6.8 6.5 5.3 5.0 5.2 4.8
6.5 6.5 6.5 6.5 6.5 6.5 6.5 6.5 6.5 6.5 6.4 5.9 5.8 6.1 4.7 4.1 3.2 3.4 3.6 3.3 3.7 3.7 3.9 4.2 4.7 3.7 3.7 4.1 3.3 3.5 3.4 3.4 3.3 2.8 1.8 2.0 2.8 4.3 4.8 4.3 4.5 5.8 6.3 6.3 5.9 5.0 5.0 5.1 4.9
6.5 6.5 6.5 6.5 6.5 6.5 6.5 6.5 6.5 6.5 6.5 6.5 6.0 5.0 4.0 4.4 4.2 3.6 3.7 4.0 4.1 4.3 3.9 3.8 4.2 4.2 4.0 3.9 4.0 4.2 3.9 3.5 2.8 2.1 2.5 2.8 3.0 3.8 3.7 4.5 5.1 5.9 5.9 5.8 5.3 5.1 5.4 5.5 5.2
6.5 6.5 6.5 6.5 6.5 6.5 6.5 6.5 6.5 6.5 6.5 6.5 5.4 4.6 4.3 4.2 4.3 4.5 4.4 4.5 4.4 4.1 4.1 4.2 4.2 4.6 4.4 4.1 4.2 4.0 3.8 3.8 2.7 3.0 3.2 3.2 3.5 3.6 4.3 5.1 5.4 5.7 5.7 5.6 5.4 5.2 5.3 5.2 5.1
6.5 6.5 6.5 6.5 6.5 6.5 6.5 6.5 6.5 6.5 5.5 4.6 5.4 5.0 4.9 5.1 5.3 4.5 4.6 4.1 4.0 4.3 4.3 4.5 4.9 4.8 4.3 4.2 4.4 4.1 4.0 4.0 2.9 3.0 3.5 3.3 3.7 4.3 5.3 5.8 5.7 6.1 5.8 5.8 5.5 5.1 5.1 5.1 5.1
Wind_Speed
6 4 2 3 3 3 4 5 5 6 6 8 10 12 10 6 2 6 6 11 14 13 17 19 22 21 20 20 19 19 19 18 18 17 16 15 14 13 13 12 12 12 12 12 11 11 10 10 10
3 2 4 1 4 3 4 1 11 16 14 16 16 16 15 7 6 11 7 9 16 18 16 17 21 20 20 20 18 18 18 17 17 15 15 14 13 13 12 13 12 12 13 12 12 12 11 12 11
0 2 3 2 2 5 4 2 13 7 12 9 6 7 6 7 8 5 12 13 16 14 15 19 22 21 19 18 18 17 16 16 15 15 13 13 13 13 13 13 12 11 11 11 10 10 10 10 11
2 3 4 2 6 7 7 6 17 16 10 12 12 7 5 4 5 10 14 16 14 12 16 21 21 20 19 18 18 17 16 16 15 13 13 12 13 12 12 12 10 9 8 7 7 7 7 8 9
3 2 1 3 5 6 5 3 11 10 9 10 10 4 5 5 19 17 14 13 15 8 15 18 21 20 18 18 16 16 16 15 14 13 12 13 12 11 10 9 7 6 4 4 5 6 7 8 10
3 3 1 1 5 7 9 3 17 18 20 16 17 11 5 13 16 13 14 12 16 10 15 16 20 20 19 19 18 17 16 15 14 14 13 12 12 10 8 7 5 4 1 3 4 5 7 9 11
5 3 3 4 6 15 6 2 8 14 9 5 10 11 5 8 13 13 13 10 13 15 15 15 17 18 20 19 18 16 15 14 14 13 13 13 11 9 9 7 5 3 1 1 4 5 7 9 10
4 3 2 3 4 11 4 3 7 9 4 8 16 7 12 9 13 14 13 12 10 9 12 14 16 17 19 18 18 17 15 15 13 12 11 9 8 8 8 7 5 4 2 3 6 7 7 7 9
5 2 4 6 3 11 7 9 6 4 8 0 1 8 16 16 13 12 8 5 6 6 8 13 13 15 16 14 15 16 15 14 12 10 10 10 9 8 8 7 6 6 6 8 9 10 9 9 10
4 2 3 5 8 5 6 9 7 6 7 6 10 10 14 18 15 14 11 12 11 10 9 9 12 13 14 11 13 14 12 10 10 9 9 10 10 10 9 9 11 9 9 11 12 13 13 12 11
5 4 2 8 4 7 8 5 4 11 2 14 20 14 13 13 12 13 14 16 15 14 10 9 11 17 15 9 12 10 8 8 8 9 7 8 6 7 11 10 9 8 7 10 10 11 10 10 10
4 1 5 2 3 5 8 7 5 4 7 20 23 20 10 11 12 12 11 9 10 12 10 9 12 12 13 13 14 13 10 12 11 11 11 10 7 6 5 1 2 4 6 7 8 7 8 10 11
7 3 6 5 7 3 4 6 4 4 11 14 15 16 16 15 15 12 12 9 9 15 11 8 8 5 10 10 13 11 11 13 14 12 9 10 6 3 2 3 6 8 10 8 9 11 12 14 16
6 7 6 6 3 3 5 3 5 1 16 16 18 16 16 16 16 13 8 11 12 11 9 8 9 11 8 5 8 8 13 11 12 10 10 10 9 5 3 3 5 8 10 11 10 7 7 8 11
8 6 5 0 3 3 5 3 5 7 18 18 18 17 15 15 13 14 14 10 15 14 14 13 8 3 6 4 3 6 6 7 10 7 4 2 3 5 4 3 5 8 11 13 14 12 11 6 9
5 5 3 3 3 1 5 6 5 9 15 18 16 13 13 13 10 4 5 4 14 17 15 10 8 6 1 0 2 2 5 6 4 5 5 4 7 9 8 6 5 8 11 11 7 3 4 4 4
5 3 4 2 8 3 3 6 6 9 12 14 12 4 5 9 11 11 11 10 8 10 12 6 5 4 3 4 2 6 9 8 6 12 11 12 14 13 11 10 11 14 12 8 4 3 2 4 6
5 5 3 7 5 2 4 6 5 4 7 6 9 9 13 16 11 13 14 14 14 13 12 9 7 4 4 6 6 7 7 13 17 17 18 21 20 22 19 15 16 15 8 6 5 4 3 2 5
5 5 7 2 1 4 5 3 3 3 9 11 15 14 16 15 10 13 13 12 14 14 14 7 7 6 4 3 4 4 3 4 6 14 18 18 18 16 15 12 12 14 5 4 5 3 4 6 5
5 8 4 5 7 4 6 5 5 7 7 16 19 15 15 13 13 13 11 10 10 8 7 7 7 8 5 4 2 3 3 4 5 13 16 16 16 18 16 13 8 8 4 6 5 5 3 2 4
5 5 3 2 3 3 8 5 6 7 14 11 9 10 13 14 13 11 12 9 7 7 5 7 7 8 6 6 3 2 3 3 3 4 3 9 13 15 15 11 8 8 7 5 5 5 6 3 2
2 3 3 2 4 2 3 1 5 6 9 7 8 8 10 12 10 10 9 8 8 5 7 7 7 6 5 5 5 5 3 3 2 2 2 6 12 12 14 14 11 9 6 5 4 5 3 4 3
3 2 1 1 3 4 6 6 4 6 10 9 7 9 8 9 11 9 8 8 6 6 6 6 7 6 7 7 7 5 6 4 3 2 5 5 7 13 14 14 10 6 6 5 5 4 5 3 1
1 2 7 4 3 3 5 5 4 4 7 8 5 7 9 7 7 7 6 7 5 3 5 6 7 6 7 7 7 8 7 5 4 2 2 1 2 5 10 10 5 4 4 3 2 2 1 2 3
8 5 3 4 4 3 5 5 1 6 8 9 9 7 7 7 8 7 8 6 4 4 4 4 7 7 6 7 7 7 7 6 5 2 1 2 1 0 2 2 2 1 3 1 0 3 4 5 5
3 5 5 4 2 3 5 3 1 5 14 10 9 7 6 7 6 5 5 6 6 6 6 6 7 6 6 6 6 5 6 4 4 4 3 3 3 3 2 0 4 5 4 3 4 2 3 4 4
3 4 4 6 3 3 1 3 2 6 9 9 8 7 4 7 7 9 8 7 6 6 5 5 6 6 5 5 4 3 4 5 4 5 5 4 4 3 4 4 4 7 7 6 5 3 5 4 4
5 2 4 4 2 1 3 2 4 5 6 6 7 8 9 9 9 7 6 7 5 5 4 4 4 5 4 4 4 4 4 5 6 6 7 6 5 5 5 4 2 5 6 6 5 4 5 5 4
4 3 5 4 3 4 2 4 4 7 5 8 8 9 7 7 7 6 6 4 4 3 5 4 5 4 4 6 4 5 5 3 5 6 6 6 5 5 5 3 3 4 2 3 3 4 3 4 3
2 3 4 4 2 2 3 4 4 10 9 9 11 9 7 7 6 7 4 4 4 4 4 4 1 3 6 6 6 6 4 4 6 6 7 5 6 8 6 4 4 2 2 2 1 4 2 3 4
Wind_Direction
295 307 128 43 61 81 285 249 141 58 51 39 88 99 108 41 89 141 101 127 133 121 120 115 115 114 111 111 112 111 107 106 103 99 95 91 85 81 77 74 68 62 58 53 45 42 32 33 21
326 62 51 111 99 202 264 151 92 113 128 110 78 79 63 67 48 104 103 141 130 120 120 119 116 114 115 115 114 112 112 110 107 105 100 96 95 92 84 74 66 58 55 50 42 36 31 29 24
297 70 88 89 139 187 187 239 124 137 158 147 104 63 75 117 126 124 130 133 115 108 118 123 123 119 112 111 110 112 115 112 108 106 105 101 95 91 87 80 73 62 57 52 49 36 30 22 15
85 18 23 100 248 246 173 182 109 106 97 90 131 59 56 120 115 132 130 124 111 114 121 124 119 116 116 113 113 113 111 110 108 108 105 103 98 94 89 83 79 74 69 57 46 35 18 6 360
53 72 51 328 294 37 356 104 117 105 103 98 105 109 84 47 112 123 128 120 118 108 118 124 124 121 118 118 120 118 119 120 118 113 113 110 108 107 109 107 104 92 81 63 35 11 356 351 348
48 98 49 45 328 94 344 117 100 99 108 103 95 106 84 134 118 134 127 122 125 127 130 133 131 130 130 131 130 130 131 131 131 132 134 130 129 130 131 123 117 112 101 44 14 348 342 345 341
114 109 229 204 222 84 342 292 107 124 120 72 148 113 119 133 133 134 129 122 128 144 143 141 140 143 139 134 134 137 141 149 145 147 142 140 147 149 154 147 157 184 203 350 317 322 336 343 339
135 117 258 265 148 106 217 3 104 118 82 119 132 155 154 155 143 132 130 135 149 159 149 149 154 149 143 145 152 155 161 158 155 160 155 149 163 173 179 180 197 220 244 276 284 298 312 321 320
159 80 241 213 144 151 195 99 21 76 116 47 311 125 141 140 137 120 120 127 154 158 158 167 156 154 153 160 168 164 173 168 164 168 167 177 196 203 205 206 236 241 241 258 269 278 288 301 300
126 169 268 217 165 172 139 122 149 101 110 51 82 90 125 138 144 140 154 170 173 167 180 168 160 160 163 171 176 174 181 188 177 185 192 196 211 222 227 230 243 251 247 258 269 282 293 295 294
190 182 239 17 101 134 133 103 106 117 54 141 135 138 143 144 148 161 178 181 179 173 173 172 166 179 168 172 179 187 193 203 213 200 211 198 210 210 225 234 240 261 287 280 292 299 294 292 286
108 281 101 45 78 90 142 137 110 175 183 151 152 152 143 154 169 185 192 183 149 166 167 154 176 173 177 175 180 191 185 207 226 205 177 139 137 149 163 169 302 324 336 323 313 307 303 301 299
113 136 84 94 93 100 103 116 142 120 126 143 144 153 164 171 187 198 195 186 150 169 147 150 117 113 139 147 153 166 184 189 201 185 169 141 147 138 71 13 0 352 354 355 345 338 335 331 324
160 127 147 119 108 88 102 87 91 45 138 147 157 172 177 182 194 201 185 190 167 146 130 135 141 156 123 145 160 152 160 177 175 182 175 165 164 156 129 30 9 9 5 355 343 328 323 318 322
145 86 28 282 166 140 119 13 141 145 154 158 177 183 186 194 200 210 199 192 150 152 149 167 133 47 113 165 108 154 164 153 168 191 203 170 130 111 106 82 26 7 12 16 10 4 0 352 342
84 57 108 274 156 230 93 245 236 166 156 178 186 191 195 202 213 269 54 132 141 148 154 148 149 162 201 86 26 171 146 136 100 213 159 112 89 94 66 47 25 6 10 13 10 359 344 335 327
11 195 215 249 207 133 106 252 243 180 173 182 192 169 73 72 50 43 47 67 90 129 135 101 117 146 199 50 79 72 42 47 93 80 81 64 53 44 41 22 13 5 10 8 356 335 4 333 335
241 236 200 176 220 113 159 302 81 195 174 187 89 85 87 78 62 64 62 69 75 80 85 80 59 38 64 72 70 61 64 45 56 54 60 54 45 47 43 30 21 19 18 5 352 343 341 303 303
223 74 115 89 112 165 99 128 89 219 82 104 104 97 90 81 82 72 69 68 76 78 87 95 86 56 66 59 55 34 42 53 61 63 56 55 48 44 43 37 23 18 16 339 339 316 327 325 339
78 95 24 15 16 77 68 73 24 32 87 126 122 113 110 102 85 81 78 72 73 83 101 91 85 79 78 93 110 107 141 92 90 75 61 55 48 43 36 29 13 3 345 342 338 335 323 321 18
53 96 84 177 330 5 101 13 54 52 91 98 92 113 109 115 108 96 87 80 80 87 104 110 112 111 100 96 101 81 74 71 64 45 61 50 55 47 36 23 13 10 10 2 350 3 13 338 349
80 168 155 100 79 168 82 157 25 103 83 87 112 111 118 117 112 114 109 96 99 108 95 93 101 96 82 73 70 62 60 77 58 80 54 39 50 42 37 44 42 45 32 23 0 20 26 350 12
200 306 82 88 76 70 359 89 137 143 121 130 131 132 133 138 134 129 129 134 141 121 105 99 90 114 106 92 106 111 109 119 120 91 59 38 30 39 40 24 19 37 44 30 33 33 34 22 347
324 5 37 56 69 49 303 129 181 185 172 146 122 131 145 148 135 131 137 136 132 100 81 88 90 62 85 99 102 109 111 108 87 60 62 30 25 45 30 16 55 75 63 53 44 37 8 275 266
44 54 9 25 18 204 309 50 313 294 132 134 133 128 136 133 132 141 144 148 120 87 99 90 81 83 73 82 88 104 115 120 122 150 176 62 76 20 312 8 117 152 174 170 336 284 319 318 320
354 113 142 154 167 265 358 81 357 106 109 123 117 123 133 147 143 129 87 80 83 62 51 54 69 86 102 114 118 122 146 157 184 190 184 169 180 201 222 326 205 222 230 262 272 283 289 289 290
315 54 158 105 11 68 256 55 53 133 142 149 123 181 148 76 78 101 94 89 91 82 83 86 106 121 121 119 106 121 174 198 207 195 170 190 197 213 212 225 228 248 246 252 260 261 275 258 271
104 167 46 9 93 110 336 161 211 176 143 90 101 96 89 95 87 80 74 72 63 57 46 42 88 111 114 132 179 203 222 216 212 183 199 207 217 217 223 241 290 283 276 275 278 279 294 294 297
13 30 59 105 107 156 149 262 267 186 121 112 94 115 121 113 113 101 82 67 61 68 37 57 100 126 177 207 227 238 251 235 197 211 217 218 219 232 237 272 239 254 270 299 316 309 10 45 19
132 118 104 108 208 57 135 270 238 135 143 144 145 144 140 122 98 84 72 52 34 10 26 99 171 214 224 239 250 264 254 242 216 231 234 232 226 219 226 207 219 251 268 306 13 112 72 40 358